10.1,99.9,1020.1,202110281230
9.6,99.9,1019.9,202110281300
9.5,99.9,1019.5,202110281330
9.7,99.9,1019.3,202110281400
9.5,99.9,1019.4,202110281430
9.5,99.9,1019.3,202110281500
9.4,99.9,1019.0,202110281530
9.1,99.9,1018.9,202110281600
8.7,99.9,1018.8,202110281630
7.7,99.9,1018.8,202110281700
6.6,99.9,1018.9,202110281730
5.7,99.9,1019.0,202110281800
5.0,99.9,1018.9,202110281830
4.3,99.9,1018.8,202110281900
4.1,99.9,1018.6,202110281930
4.1,99.9,1018.5,202110282000
3.8,99.9,1018.4,202110282030
3.7,99.9,1018.3,202110282100
3.8,99.9,1018.0,202110282130
3.4,99.9,1017.8,202110282200
3.4,99.9,1017.5,202110282230
3.3,99.9,1017.2,202110282300
3.3,99.9,1017.0,202110282330
3.0,99.9,1016.8,202110290000
2.9,99.9,1016.5,202110290030
3.1,99.9,1016.4,202110290100
3.0,99.9,1016.1,202110290130
2.8,99.9,1015.9,202110290200
2.8,99.9,1015.7,202110290230
2.6,99.9,1015.5,202110290300
2.5,99.9,1015.4,202110290330
2.5,99.9,1015.1,202110290400
2.6,99.9,1015.1,202110290430
2.4,99.9,1014.9,202110290500
2.8,99.9,1014.7,202110290530
2.8,99.9,1014.7,202110290600
2.4,99.9,1014.8,202110290630
1.9,99.9,1014.8,202110290700
2.2,99.9,1015.0,202110290730
2.8,99.9,1015.3,202110290800
3.5,99.9,1015.1,202110290830
3.3,99.9,1015.2,202110290900
3.9,99.9,1015.0,202110290930
4.1,99.9,1014.9,202110291000
4.5,99.9,1014.7,202110291030
4.6,99.9,1014.5,202110291100
5.0,99.9,1014.4,202110291130
5.0,99.9,1014.0,202110291200
5.4,99.9,1013.7,202110291230
5.4,99.9,1013.5,202110291300
5.3,99.9,1013.3,202110291330
5.0,99.9,1013.3,202110291400
4.4,99.9,1013.2,202110291430
4.7,99.9,1013.2,202110291500
4.5,99.9,1013.4,202110291530
4.1,99.9,1013.3,202110291600
4.1,99.9,1013.4,202110291630
4.2,99.9,1013.4,202110291700
4.0,99.9,1013.4,202110291730
4.3,99.9,1013.6,202110291800
4.0,99.9,1013.5,202110291830
4.1,99.9,1013.7,202110291900
4.3,99.9,1013.6,202110291930
4.1,99.9,1013.4,202110292000
4.1,99.9,1013.5,202110292030
3.7,99.9,1013.5,202110292100
3.5,99.9,1013.7,202110292130
3.5,99.9,1013.3,202110292200
3.6,99.9,1013.6,202110292230
3.3,99.9,1013.3,202110292300
3.4,99.9,1013.3,202110292330
2.9,99.9,1013.1,202110300000
2.8,99.9,1013.2,202110300030
2.4,99.9,1012.8,202110300100
2.0,99.9,1012.6,202110300130
1.9,99.9,1012.3,202110300200
2.3,99.9,1012.4,202110300230
1.7,99.9,1011.9,202110300300
1.8,99.9,1011.8,202110300330
2.0,99.9,1011.5,202110300400
1.9,99.9,1011.4,202110300430
1.8,99.9,1010.8,202110300500
1.4,99.9,1010.5,202110300530
1.4,99.9,1009.8,202110300600
1.4,99.9,1009.9,202110300630
1.0,99.9,1009.7,202110300700
0.9,99.9,1009.6,202110300730
1.2,99.9,1009.4,202110300800
1.4,99.9,1009.0,202110300830
1.6,99.9,1009.0,202110300900
2.3,99.9,1008.8,202110300930
2.6,99.9,1008.6,202110301000
3.4,99.9,1008.3,202110301030
4.1,99.9,1008.1,202110301100
5.7,99.9,1008.0,202110301130
5.8,99.9,1008.3,202110301200
